User: anonymous   Login
Location: Unspecified
(0.0000°N, 0.0000°E)
Time: 19:58:35
(UTC+00:00)
Language:

GONETS M 13 (M23) - Orbit

View from above orbital plane
View from above orbital plane
View from above satellite
View from above satellite

Ground track
Ground track

The orbit data is extracted from the following two-line orbital elements,

1 40554U 15020C   21026.27811999  .00000023  00000-0  95064-4 0  9996
2 40554  82.4864 176.9343 0012523 304.6561  55.3341 12.42888586264312
Epoch (UTC): 26 January 2021 06:40:29
Eccentricity: 0.0012523
inclination: 82.4864°
perigee height: 1484 km
apogee height: 1504 km
right ascension of ascending node: 176.9343°
argument of perigee: 304.6561°
revolutions per day: 12.42888586
mean anomaly at epoch: 55.3341°
orbit number at epoch: 26431

The dashed part of the orbit path shows where the satellite is in the earth's shadow,  

DLR